SCP
-0 -0 -0 -0 -0 -0 -0 -0 -0 -0 -0 -0 0 -0 -0 -0 -0 0 0 -0 0 0
-0 -0 -0 -0 -0 -0 -0 0 -0 -0 -0 -0 -0 -0 -0 0 -0 0 0 -0 0 0
-0 -0 -0 -0 -0 -0 -0 -0 -0 -0 -0 0 0 0 -0 -0 0 0 0 0 0 0
-0 -0 -0 -0 -0 -0 -0 -0 -0 -0 0 0 0 0 -0 -0 0 0 0 0 0 0
-0 -0 -0 -0 0 0 0 -0 -0 -0 0 0 0 0 0 0 0 0 0 0 0 0
0 -0 -0 0 0 -0 -0 0 -0 -0 -0 0 0 0 0 0 0 0 0 0 0 0
0 0 0 0 0 0 0 0 0 0 0 0 0 0 0 0 0 0 0 0 0 0
0 0 0 0 0 0 0 0 0 0 0 0 0 0 0 0 0 0 0 0 0 0
0 0 0 0 0 0 0 0 0 0 0 0 0 0 0 0 0 0 0 0 0 0
0 0 0 0 0 0 0 0 0 0 0 0 0 0 0 0 0 0 0 0 0 0
0 0 0 0 0 0 0 0 0 0 0 0 0 0 0 0 0 0 0 0 0 0
1 1 1 1 1 1 0 0 0 0 0 0 0 0 0 0 0 0 0 0 0 0
1 1 1 1 1 1 0 0 0 0 0 0 0 0 0 0 0 0 0 0 0 0
1 1 1 1 1 1 0 0 0 0 0 0 0 0 0 0 0 0 0 0 0 0
Wind_Speed_500mb
68 68 80 103 107 107 113 109 100 94 84 75 71 77 78 66 58 58 50 52 51 52
70 67 71 77 114 107 109 110 106 100 105 103 98 92 89 76 69 73 65 62 56 54
65 70 68 67 94 111 114 110 102 113 111 111 95 92 93 85 76 83 79 72 68 63
66 71 69 68 69 86 88 100 97 97 115 107 101 98 97 99 88 79 75 70 67 68
63 64 71 81 82 86 86 85 93 88 87 99 101 99 94 96 84 76 78 78 73 84
76 77 79 80 86 83 87 85 86 88 87 91 94 88 87 86 84 84 84 84 86 89
80 84 81 81 78 83 82 86 84 86 87 88 86 87 88 87 88 91 92 94 97 94
82 78 73 79 83 83 86 87 90 90 89 90 89 91 91 90 92 90 91 100 83 83
75 80 80 81 83 84 89 92 88 93 93 95 95 100 103 101 89 91 95 93 86 91
78 81 85 79 78 85 87 84 90 90 88 89 92 98 98 95 94 95 95 90 95 90
75 83 79 79 84 83 84 87 86 87 86 83 84 82 81 82 86 92 98 96 94 80
72 75 76 80 84 82 79 80 87 80 80 80 77 74 75 74 80 79 80 84 86 87
64 76 77 76 73 73 71 72 67 69 72 74 73 75 74 78 81 78 76 79 83 80
61 67 70 65 64 63 65 70 67 66 69 72 71 72 69 68 67 71 73 72 68 58
Wind_Direction_500mb
200 205 208 204 200 200 199 202 204 204 208 209 217 216 222 234 234 236 243 249 244 246
200 204 207 208 209 205 207 207 210 216 222 227 227 231 227 230 234 237 245 250 249 244
206 209 208 209 209 215 216 220 220 223 224 230 234 229 225 232 239 240 246 248 249 249
209 208 208 210 215 213 214 219 216 220 229 229 229 227 232 235 238 242 247 247 249 251
211 213 216 212 214 215 217 221 219 218 231 227 226 230 231 233 236 236 241 245 248 256
211 211 215 216 215 220 219 218 221 219 222 223 225 229 233 232 235 239 244 249 249 256
216 215 213 216 215 218 220 219 221 223 225 225 227 229 232 235 240 244 248 250 250 257
220 219 216 216 217 218 221 223 223 223 227 229 230 233 234 237 240 243 245 249 252 253
220 219 218 218 219 220 222 223 223 225 227 229 232 237 238 237 239 241 245 246 249 257
221 222 222 220 219 221 222 223 225 225 226 229 232 238 241 242 241 240 247 253 257 261
223 222 222 222 221 222 221 222 224 226 227 230 233 240 242 243 243 245 249 253 260 262
220 221 220 221 221 221 220 224 227 225 228 229 233 238 240 240 246 250 251 254 259 262
224 219 218 219 220 219 220 222 225 226 226 226 229 231 236 243 246 249 251 251 254 253
230 226 224 219 215 215 209 211 213 220 227 229 233 239 242 246 249 251 252 248 244 242
Wind_Speed_850mb
68 68 80 103 107 107 113 109 100 94 84 75 71 77 78 66 58 58 50 52 51 52
70 67 71 77 114 107 109 110 106 100 105 103 98 92 89 76 69 73 65 62 56 54
65 70 68 67 94 111 114 110 102 113 111 111 95 92 93 85 76 83 79 72 68 63
66 71 69 68 69 86 88 100 97 97 115 107 101 98 97 99 88 79 75 70 67 68
63 64 71 81 82 86 86 85 93 88 87 99 101 99 94 96 84 76 78 78 73 84
76 77 79 80 86 83 87 85 86 88 87 91 94 88 87 86 84 84 84 84 86 89
80 84 81 81 78 83 82 86 84 86 87 88 86 87 88 87 88 91 92 94 97 94
82 78 73 79 83 83 86 87 90 90 89 90 89 91 91 90 92 90 91 100 83 83
75 80 80 81 83 84 89 92 88 93 93 95 95 100 103 101 89 91 95 93 86 91
78 81 85 79 78 85 87 84 90 90 88 89 92 98 98 95 94 95 95 90 95 90
75 83 79 79 84 83 84 87 86 87 86 83 84 82 81 82 86 92 98 96 94 80
72 75 76 80 84 82 79 80 87 80 80 80 77 74 75 74 80 79 80 84 86 87
64 76 77 76 73 73 71 72 67 69 72 74 73 75 74 78 81 78 76 79 83 80
61 67 70 65 64 63 65 70 67 66 69 72 71 72 69 68 67 71 73 72 68 58
Wind_Direction_850mb
200 205 208 204 200 200 199 202 204 204 208 209 217 216 222 234 234 236 243 249 244 246
200 204 207 208 209 205 207 207 210 216 222 227 227 231 227 230 234 237 245 250 249 244
206 209 208 209 209 215 216 220 220 223 224 230 234 229 225 232 239 240 246 248 249 249
209 208 208 210 215 213 214 219 216 220 229 229 229 227 232 235 238 242 247 247 249 251
211 213 216 212 214 215 217 221 219 218 231 227 226 230 231 233 236 236 241 245 248 256
211 211 215 216 215 220 219 218 221 219 222 223 225 229 233 232 235 239 244 249 249 256
216 215 213 216 215 218 220 219 221 223 225 225 227 229 232 235 240 244 248 250 250 257
220 219 216 216 217 218 221 223 223 223 227 229 230 233 234 237 240 243 245 249 252 253
220 219 218 218 219 220 222 223 223 225 227 229 232 237 238 237 239 241 245 246 249 257
221 222 222 220 219 221 222 223 225 225 226 229 232 238 241 242 241 240 247 253 257 261
223 222 222 222 221 222 221 222 224 226 227 230 233 240 242 243 243 245 249 253 260 262
220 221 220 221 221 221 220 224 227 225 228 229 233 238 240 240 246 250 251 254 259 262
224 219 218 219 220 219 220 222 225 226 226 226 229 231 236 243 246 249 251 251 254 253
230 226 224 219 215 215 209 211 213 220 227 229 233 239 242 246 249 251 252 248 244 242